WJA1160 CYYC-KPHX

Flight info

Callsign WJA1160
Flight time 2h 37m
Altitude 39000
Route UBVAL Q927 SEKOM DCT DBS J9 TCH J11 CORKR DCT TENTS BRUSR1
Aircraft B38M/M-SDE1FGHILORVWXY/HB1

Departure

Time 2026-05-04 14:29
Airport Calgary International Airport (CYYC)

Arrival

Time 2026-05-04 17:07
Airport Phoenix Sky Harbor International Airport (KPHX)
Time Latitude Longitude Altitude Speed Heading
2026-05-04 14:15 51.13064 -113.99927 3562 ft 0 kts 180°
2026-05-04 14:20 51.13073 -113.99928 3558 ft 3 kts 176°
2026-05-04 14:21 51.13109 -113.99947 3559 ft 3 kts 132°
2026-05-04 14:21 51.13117 -113.99970 3560 ft 2 kts 94°
2026-05-04 14:21 51.13118 -113.99978 3560 ft 0 kts 89°
2026-05-04 14:23 51.13118 -113.99972 3562 ft 2 kts 86°
2026-05-04 14:24 51.13129 -113.99913 3560 ft 10 kts 70°
2026-05-04 14:24 51.13158 -113.99753 3557 ft 20 kts 83°
2026-05-04 14:24 51.13161 -113.99504 3562 ft 23 kts 89°
2026-05-04 14:24 51.13125 -113.99309 3561 ft 17 kts 169°
2026-05-04 14:25 51.13003 -113.99306 3556 ft 18 kts 180°
2026-05-04 14:25 51.12681 -113.99306 3558 ft 26 kts 180°
2026-05-04 14:25 51.12497 -113.99305 3559 ft 27 kts 179°
2026-05-04 14:26 51.12307 -113.99305 3563 ft 28 kts 181°
2026-05-04 14:26 51.12110 -113.99306 3557 ft 29 kts 180°
2026-05-04 14:26 51.11907 -113.99307 3557 ft 29 kts 180°
2026-05-04 14:26 51.11706 -113.99307 3561 ft 26 kts 180°
2026-05-04 14:27 51.11554 -113.99318 3563 ft 15 kts 210°
2026-05-04 14:27 51.11502 -113.99442 3561 ft 13 kts 195°
2026-05-04 14:27 51.11407 -113.99448 3559 ft 14 kts 180°
2026-05-04 14:27 51.11296 -113.99448 3562 ft 18 kts 180°
2026-05-04 14:28 51.11141 -113.99448 3562 ft 26 kts 180°
2026-05-04 14:28 51.11034 -113.99348 3562 ft 20 kts 92°
2026-05-04 14:28 51.11034 -113.99140 3565 ft 15 kts 90°
2026-05-04 14:28 51.11115 -113.99038 3565 ft 25 kts
2026-05-04 14:29 51.12295 -113.99039 3567 ft 138 kts 360°
2026-05-04 14:29 51.14427 -113.99083 4422 ft 165 kts 357°
2026-05-04 14:30 51.15599 -113.99131 5135 ft 167 kts 357°
2026-05-04 14:30 51.16792 -113.99183 5657 ft 182 kts 356°
2026-05-04 14:30 51.19609 -113.99056 6238 ft 234 kts 15°
2026-05-04 14:31 51.20953 -113.97542 7062 ft 247 kts 44°
2026-05-04 14:31 51.21791 -113.91818 8376 ft 290 kts 92°
2026-05-04 14:32 51.20976 -113.85354 9950 ft 309 kts 108°
2026-05-04 14:32 51.19791 -113.82405 10480 ft 330 kts 133°
2026-05-04 14:32 51.17787 -113.80449 10888 ft 347 kts 164°
2026-05-04 14:32 51.15381 -113.80126 11438 ft 350 kts 192°
2026-05-04 14:33 51.12943 -113.80758 12085 ft 358 kts 188°
2026-05-04 14:33 51.10449 -113.81039 12944 ft 361 kts 188°
2026-05-04 14:33 51.07938 -113.81379 13741 ft 365 kts 189°
2026-05-04 14:33 51.05397 -113.81753 14493 ft 368 kts 189°
2026-05-04 14:34 51.02849 -113.82145 15172 ft 374 kts 190°
2026-05-04 14:34 51.00245 -113.82556 15884 ft 379 kts 190°
2026-05-04 14:34 50.97596 -113.82978 16585 ft 385 kts 190°
2026-05-04 14:34 50.94903 -113.83408 17277 ft 391 kts 190°
2026-05-04 14:35 50.92183 -113.83842 17953 ft 396 kts 191°
2026-05-04 14:35 50.89422 -113.84282 18597 ft 401 kts 191°
2026-05-04 14:35 50.86633 -113.84726 19185 ft 405 kts 191°
2026-05-04 14:35 50.83821 -113.85173 19780 ft 408 kts 191°
2026-05-04 14:36 50.80981 -113.85625 20359 ft 412 kts 191°
2026-05-04 14:36 50.78109 -113.86080 20937 ft 416 kts 191°
2026-05-04 14:36 50.75202 -113.86541 21495 ft 420 kts 191°
2026-05-04 14:36 50.72282 -113.87003 22049 ft 424 kts 191°
2026-05-04 14:37 50.69333 -113.87470 22603 ft 428 kts 191°
2026-05-04 14:37 50.66395 -113.87934 23148 ft 431 kts 191°
2026-05-04 14:37 50.63381 -113.88315 23658 ft 439 kts 183°
2026-05-04 14:37 50.60333 -113.87674 24150 ft 445 kts 171°
2026-05-04 14:38 50.57275 -113.86769 24531 ft 450 kts 172°
2026-05-04 14:38 50.54174 -113.85848 24981 ft 453 kts 172°
2026-05-04 14:38 50.51064 -113.84908 25416 ft 456 kts 171°
2026-05-04 14:38 50.47929 -113.83954 25838 ft 460 kts 171°
2026-05-04 14:39 50.44821 -113.83009 26249 ft 463 kts 171°
2026-05-04 14:39 50.41643 -113.82043 26662 ft 466 kts 171°
2026-05-04 14:39 50.38447 -113.81074 27067 ft 469 kts 171°
2026-05-04 14:40 50.32002 -113.79122 27866 ft 475 kts 171°
2026-05-04 14:40 50.28748 -113.78138 28271 ft 478 kts 171°
2026-05-04 14:40 50.25475 -113.77150 28646 ft 481 kts 171°
2026-05-04 14:40 50.22180 -113.76157 29019 ft 483 kts 171°
2026-05-04 14:41 50.18869 -113.75161 29403 ft 486 kts 171°
2026-05-04 14:41 50.15538 -113.74159 29760 ft 489 kts 171°
2026-05-04 14:41 50.08815 -113.72144 30438 ft 494 kts 171°
2026-05-04 14:42 50.02079 -113.70129 31047 ft 498 kts 171°
2026-05-04 14:42 49.98667 -113.69111 31346 ft 500 kts 171°
2026-05-04 14:42 49.95241 -113.68090 31641 ft 502 kts 171°
2026-05-04 14:43 49.91792 -113.67064 31939 ft 504 kts 171°
2026-05-04 14:43 49.88337 -113.66038 32226 ft 507 kts 171°
2026-05-04 14:43 49.84857 -113.65005 32512 ft 509 kts 171°
2026-05-04 14:43 49.81372 -113.63973 32793 ft 511 kts 171°
2026-05-04 14:44 49.77871 -113.62938 33077 ft 513 kts 170°
2026-05-04 14:44 49.74357 -113.61899 33337 ft 515 kts 170°
2026-05-04 14:44 49.70834 -113.60860 33616 ft 517 kts 170°
2026-05-04 14:44 49.67284 -113.59814 33886 ft 519 kts 170°
2026-05-04 14:45 49.63724 -113.58783 34142 ft 521 kts 171°
2026-05-04 14:45 49.60153 -113.57808 34417 ft 522 kts 171°
2026-05-04 14:45 49.56623 -113.56838 34742 ft 521 kts 171°
2026-05-04 14:45 49.53052 -113.55855 35065 ft 521 kts 171°
2026-05-04 14:46 49.49489 -113.54875 35384 ft 520 kts 171°
2026-05-04 14:46 49.45921 -113.53896 35694 ft 520 kts 171°
2026-05-04 14:46 49.42360 -113.52920 35993 ft 519 kts 171°
2026-05-04 14:46 49.38804 -113.51946 36294 ft 519 kts 171°
2026-05-04 14:47 49.35257 -113.50976 36573 ft 518 kts 171°
2026-05-04 14:47 49.31703 -113.50006 36853 ft 518 kts 171°
2026-05-04 14:47 49.28153 -113.49038 37136 ft 517 kts 171°
2026-05-04 14:47 49.24609 -113.48073 37396 ft 517 kts 171°
2026-05-04 14:48 49.21076 -113.47114 37643 ft 517 kts 171°
2026-05-04 14:48 49.17528 -113.46150 37896 ft 516 kts 171°
2026-05-04 14:48 49.14037 -113.45204 38137 ft 516 kts 171°
2026-05-04 14:48 49.10501 -113.44247 38371 ft 516 kts 171°
2026-05-04 14:49 49.06970 -113.43293 38594 ft 515 kts 171°
2026-05-04 14:49 49.03433 -113.42338 38781 ft 515 kts 171°
2026-05-04 14:49 48.99905 -113.41389 38961 ft 515 kts 171°
2026-05-04 14:49 48.96369 -113.40437 39064 ft 515 kts 171°
2026-05-04 14:50 48.89322 -113.38544 39060 ft 512 kts 171°
2026-05-04 14:50 48.82299 -113.36665 39059 ft 512 kts 171°
2026-05-04 14:51 48.75312 -113.34799 39047 ft 512 kts 171°
2026-05-04 14:51 48.68291 -113.32931 39052 ft 512 kts 170°
2026-05-04 14:52 48.61261 -113.31065 39051 ft 511 kts 170°
2026-05-04 14:52 48.54261 -113.29212 39058 ft 510 kts 170°
2026-05-04 14:53 48.47261 -113.27364 39060 ft 510 kts 170°
2026-05-04 14:53 48.40272 -113.25525 39044 ft 509 kts 170°
2026-05-04 14:54 48.33295 -113.23693 39055 ft 508 kts 170°
2026-05-04 14:54 48.26334 -113.21871 39046 ft 507 kts 170°
2026-05-04 14:55 48.19414 -113.20064 39030 ft 507 kts 170°
2026-05-04 14:55 48.12459 -113.18254 39049 ft 507 kts 170°
2026-05-04 14:56 48.05516 -113.16452 39051 ft 505 kts 170°
2026-05-04 14:56 47.98639 -113.14671 39045 ft 504 kts 170°
2026-05-04 14:57 47.91738 -113.12889 39043 ft 503 kts 170°
2026-05-04 14:57 47.84842 -113.11113 39045 ft 502 kts 170°
2026-05-04 14:58 47.77968 -113.09348 39040 ft 501 kts 170°
2026-05-04 14:58 47.71097 -113.07588 39026 ft 500 kts 170°
2026-05-04 14:59 47.64236 -113.05835 39043 ft 500 kts 170°
2026-05-04 15:00 47.53961 -113.03219 39037 ft 498 kts 170°
2026-05-04 15:00 47.47124 -113.01485 39029 ft 498 kts 170°
2026-05-04 15:01 47.36921 -112.98904 39027 ft 498 kts 170°
2026-05-04 15:01 47.30080 -112.97180 39037 ft 497 kts 170°
2026-05-04 15:02 47.23274 -112.95468 39021 ft 495 kts 171°
2026-05-04 15:02 47.16482 -112.93765 39026 ft 495 kts 170°
2026-05-04 15:03 47.09696 -112.92068 39034 ft 494 kts 171°
2026-05-04 15:03 47.02921 -112.90378 39030 ft 493 kts 171°
2026-05-04 15:04 46.96197 -112.88704 39030 ft 493 kts 171°
2026-05-04 15:04 46.89435 -112.87026 39035 ft 492 kts 171°
2026-05-04 15:05 46.82680 -112.85354 39025 ft 491 kts 171°
2026-05-04 15:05 46.75930 -112.83687 39034 ft 491 kts 171°
2026-05-04 15:06 46.69233 -112.82038 39019 ft 490 kts 171°
2026-05-04 15:07 46.59129 -112.79557 39018 ft 490 kts 171°
2026-05-04 15:07 46.52407 -112.77911 39019 ft 490 kts 171°
2026-05-04 15:08 46.45687 -112.76270 39019 ft 489 kts 171°
2026-05-04 15:08 46.40113 -112.74913 39016 ft 489 kts 171°
2026-05-04 15:09 46.33401 -112.73281 39011 ft 489 kts 171°
2026-05-04 15:09 46.26692 -112.71655 39011 ft 488 kts 171°
2026-05-04 15:10 46.16646 -112.69227 39027 ft 487 kts 171°
2026-05-04 15:11 46.06636 -112.66816 39052 ft 486 kts 171°
2026-05-04 15:11 45.99980 -112.65219 39072 ft 484 kts 171°
2026-05-04 15:12 45.93359 -112.63633 39073 ft 481 kts 171°
2026-05-04 15:12 45.86800 -112.62066 39075 ft 479 kts 171°
2026-05-04 15:13 45.80208 -112.60495 39043 ft 478 kts 171°
2026-05-04 15:13 45.73652 -112.58936 39008 ft 476 kts 171°
2026-05-04 15:14 45.67124 -112.57388 38978 ft 475 kts 171°
2026-05-04 15:14 45.60630 -112.55851 38987 ft 474 kts 171°
2026-05-04 15:15 45.54118 -112.54314 38997 ft 473 kts 171°
2026-05-04 15:15 45.47628 -112.52786 38997 ft 472 kts 171°
2026-05-04 15:16 45.37905 -112.50502 38998 ft 472 kts 171°
2026-05-04 15:17 45.28196 -112.48230 39018 ft 471 kts 171°
2026-05-04 15:17 45.18533 -112.45976 39014 ft 471 kts 171°
2026-05-04 15:18 45.12060 -112.44471 38989 ft 471 kts 171°
2026-05-04 15:19 45.02327 -112.42215 38946 ft 472 kts 172°
2026-05-04 15:19 44.92609 -112.39968 38904 ft 472 kts 172°
2026-05-04 15:20 44.86163 -112.38483 38885 ft 471 kts 172°
2026-05-04 15:20 44.79680 -112.36992 38885 ft 471 kts 172°
2026-05-04 15:21 44.73198 -112.35506 38882 ft 471 kts 172°
2026-05-04 15:22 44.63547 -112.33298 38866 ft 469 kts 172°
2026-05-04 15:22 44.53899 -112.31098 38862 ft 467 kts 172°
2026-05-04 15:23 44.47494 -112.29641 38851 ft 465 kts 172°
2026-05-04 15:23 44.41105 -112.28191 38849 ft 465 kts 172°
2026-05-04 15:24 44.28381 -112.25313 38837 ft 464 kts 172°
2026-05-04 15:25 44.22012 -112.23878 38832 ft 463 kts 172°
2026-05-04 15:26 44.12477 -112.21734 38829 ft 462 kts 172°
2026-05-04 15:26 44.02894 -112.20499 38837 ft 460 kts 178°
2026-05-04 15:27 43.93344 -112.19787 38852 ft 459 kts 178°
2026-05-04 15:28 43.83782 -112.19084 38859 ft 458 kts 178°
2026-05-04 15:29 43.74233 -112.18385 38880 ft 457 kts 178°
2026-05-04 15:30 43.52060 -112.16769 38927 ft 455 kts 178°
2026-05-04 15:31 43.42573 -112.16081 38929 ft 455 kts 178°
2026-05-04 15:32 43.26774 -112.14941 38876 ft 455 kts 179°
2026-05-04 15:34 43.10952 -112.13805 38824 ft 455 kts 179°
2026-05-04 15:34 43.01484 -112.13128 38823 ft 456 kts 179°
2026-05-04 15:35 42.91981 -112.12450 38828 ft 455 kts 179°
2026-05-04 15:36 42.82490 -112.11775 38825 ft 455 kts 179°
2026-05-04 15:36 42.76162 -112.11327 38828 ft 455 kts 179°
2026-05-04 15:37 42.69842 -112.10878 38828 ft 454 kts 180°
2026-05-04 15:37 42.63530 -112.10435 38834 ft 454 kts 180°
2026-05-04 15:38 42.57217 -112.09989 38837 ft 454 kts 180°
2026-05-04 15:38 42.50934 -112.09548 38837 ft 453 kts 180°
2026-05-04 15:39 42.44642 -112.09106 38835 ft 453 kts 180°
2026-05-04 15:40 42.35216 -112.08446 38838 ft 452 kts 180°
2026-05-04 15:40 42.28942 -112.08008 38836 ft 451 kts 181°
2026-05-04 15:41 42.22717 -112.07574 38840 ft 450 kts 181°
2026-05-04 15:41 42.16468 -112.07140 38827 ft 449 kts 181°
2026-05-04 15:42 42.10225 -112.06706 38833 ft 449 kts 181°
2026-05-04 15:42 42.03977 -112.06273 38857 ft 448 kts 181°
2026-05-04 15:43 41.97755 -112.05843 38875 ft 447 kts 181°
2026-05-04 15:43 41.91539 -112.05415 38891 ft 447 kts 181°
2026-05-04 15:44 41.85326 -112.04986 38910 ft 446 kts 182°
2026-05-04 15:44 41.79155 -112.04562 38909 ft 446 kts 182°
2026-05-04 15:45 41.72962 -112.04137 38903 ft 444 kts 182°
2026-05-04 15:45 41.66787 -112.03714 38914 ft 444 kts 182°
2026-05-04 15:46 41.60614 -112.03292 38915 ft 443 kts 182°
2026-05-04 15:46 41.54464 -112.02873 38905 ft 442 kts 182°
2026-05-04 15:47 41.48351 -112.02457 38913 ft 442 kts 182°
2026-05-04 15:47 41.42215 -112.02040 38898 ft 441 kts 183°
2026-05-04 15:48 41.36090 -112.01625 38877 ft 440 kts 183°
2026-05-04 15:48 41.26907 -112.01003 38911 ft 439 kts 183°
2026-05-04 15:49 41.20838 -112.00593 38915 ft 439 kts 184°
2026-05-04 15:49 41.14736 -112.00182 38917 ft 439 kts 184°
2026-05-04 15:50 41.08635 -111.99772 38920 ft 438 kts 184°
2026-05-04 15:50 41.02543 -111.99362 38913 ft 438 kts 184°
2026-05-04 15:51 40.96485 -111.98957 38882 ft 438 kts 184°
2026-05-04 15:51 40.90404 -111.98550 38894 ft 437 kts 185°
2026-05-04 15:52 40.84323 -111.98133 38902 ft 437 kts 185°
2026-05-04 15:52 40.78244 -111.97691 38905 ft 437 kts 185°
2026-05-04 15:53 40.72162 -111.97253 38902 ft 437 kts 185°
2026-05-04 15:53 40.66079 -111.96814 38919 ft 437 kts 185°
2026-05-04 15:54 40.60043 -111.96381 38922 ft 437 kts 185°
2026-05-04 15:54 40.53975 -111.95945 38921 ft 436 kts 185°
2026-05-04 15:55 40.47915 -111.95511 38897 ft 436 kts 186°
2026-05-04 15:55 40.41858 -111.95078 38870 ft 436 kts 186°
2026-05-04 15:56 40.36815 -111.94717 38873 ft 436 kts 186°
2026-05-04 15:56 40.30768 -111.94287 38887 ft 435 kts 186°
2026-05-04 15:57 40.24793 -111.94474 38906 ft 422 kts 195°
2026-05-04 15:57 40.18937 -111.95303 38895 ft 423 kts 195°
2026-05-04 15:58 40.13134 -111.96143 38888 ft 422 kts 195°
2026-05-04 15:58 40.07296 -111.96990 38871 ft 422 kts 195°
2026-05-04 15:59 40.01459 -111.97835 38851 ft 421 kts 195°
2026-05-04 15:59 39.95629 -111.98678 38841 ft 421 kts 195°
2026-05-04 16:00 39.89798 -111.99519 38831 ft 421 kts 195°
2026-05-04 16:00 39.83981 -112.00358 38830 ft 420 kts 195°
2026-05-04 16:01 39.78169 -112.01194 38830 ft 420 kts 195°
2026-05-04 16:01 39.72355 -112.02029 38816 ft 420 kts 195°
2026-05-04 16:02 39.66581 -112.02856 38818 ft 420 kts 195°
2026-05-04 16:03 39.57846 -112.04106 38821 ft 421 kts 195°
2026-05-04 16:03 39.52012 -112.04939 38817 ft 421 kts 195°
2026-05-04 16:04 39.46177 -112.05771 38817 ft 422 kts 194°
2026-05-04 16:04 39.37424 -112.07016 38833 ft 422 kts 194°
2026-05-04 16:05 39.31616 -112.07840 38826 ft 422 kts 194°
2026-05-04 16:06 39.22856 -112.09081 38817 ft 421 kts 194°
2026-05-04 16:07 39.11182 -112.10729 38873 ft 422 kts 194°
2026-05-04 16:08 38.99583 -112.12361 38922 ft 420 kts 194°
2026-05-04 16:09 38.85080 -112.14396 38890 ft 418 kts 194°
2026-05-04 16:10 38.73523 -112.16011 38868 ft 417 kts 195°
2026-05-04 16:11 38.62053 -112.17608 38836 ft 414 kts 196°
2026-05-04 16:12 38.44994 -112.19973 38852 ft 407 kts 197°
2026-05-04 16:13 38.33776 -112.21523 38866 ft 406 kts 197°
2026-05-04 16:14 38.22606 -112.23062 38872 ft 402 kts 197°
2026-05-04 16:16 38.08751 -112.24964 38858 ft 400 kts 198°
2026-05-04 16:17 37.94963 -112.26849 38943 ft 398 kts 198°
2026-05-04 16:18 37.83955 -112.28349 39020 ft 397 kts 198°
2026-05-04 16:19 37.70253 -112.30209 39059 ft 396 kts 198°
2026-05-04 16:20 37.56276 -112.31071 39010 ft 403 kts 196°
2026-05-04 16:22 37.42315 -112.31943 38932 ft 402 kts 196°
2026-05-04 16:23 37.25585 -112.32984 38863 ft 403 kts 196°
2026-05-04 16:25 37.08771 -112.34025 38845 ft 404 kts 195°
2026-05-04 16:26 36.89013 -112.35239 38851 ft 407 kts 196°
2026-05-04 16:28 36.74861 -112.36090 38858 ft 409 kts 196°
2026-05-04 16:29 36.54875 -112.37287 38864 ft 412 kts 196°
2026-05-04 16:31 36.40545 -112.38139 38874 ft 414 kts 196°
2026-05-04 16:32 36.23255 -112.39161 38865 ft 415 kts 196°
2026-05-04 16:33 36.11725 -112.39840 38948 ft 415 kts 196°
2026-05-04 16:34 36.03115 -112.40539 38974 ft 412 kts 197°
2026-05-04 16:35 35.85939 -112.42030 38463 ft 410 kts 197°
2026-05-04 16:36 35.83094 -112.42275 38199 ft 410 kts 197°
2026-05-04 16:36 35.77392 -112.42767 37650 ft 410 kts 197°
2026-05-04 16:37 35.71711 -112.43257 37131 ft 407 kts 197°
2026-05-04 16:37 35.68920 -112.43497 36869 ft 405 kts 197°
2026-05-04 16:37 35.63323 -112.43979 36353 ft 401 kts 197°
2026-05-04 16:38 35.57810 -112.44453 35517 ft 394 kts 197°
2026-05-04 16:39 35.49653 -112.45114 34012 ft 394 kts 192°
2026-05-04 16:39 35.44069 -112.44143 32945 ft 403 kts 184°
2026-05-04 16:40 35.38559 -112.43087 32047 ft 397 kts 183°
2026-05-04 16:40 35.34054 -112.42206 31317 ft 392 kts 182°
2026-05-04 16:41 35.27851 -112.40989 30297 ft 384 kts 181°
2026-05-04 16:41 35.20854 -112.39619 29077 ft 375 kts 181°
2026-05-04 16:42 35.13431 -112.38016 28641 ft 343 kts 181°
2026-05-04 16:43 35.08676 -112.36994 28571 ft 358 kts 181°
2026-05-04 16:43 35.03586 -112.35897 28183 ft 386 kts 180°
2026-05-04 16:43 35.00916 -112.35318 27973 ft 392 kts 179°
2026-05-04 16:44 34.90096 -112.32984 27335 ft 394 kts 179°
2026-05-04 16:45 34.84701 -112.31808 27120 ft 393 kts 179°
2026-05-04 16:46 34.76625 -112.30030 26911 ft 392 kts 179°
2026-05-04 16:46 34.71307 -112.28861 26530 ft 390 kts 179°
2026-05-04 16:47 34.66001 -112.27696 25702 ft 384 kts 178°
2026-05-04 16:47 34.60776 -112.26550 24871 ft 378 kts 178°
2026-05-04 16:48 34.53087 -112.24868 23638 ft 370 kts 177°
2026-05-04 16:48 34.50557 -112.24315 23164 ft 368 kts 177°
2026-05-04 16:49 34.45562 -112.23224 22312 ft 361 kts 176°
2026-05-04 16:49 34.40636 -112.21949 21486 ft 362 kts 174°
2026-05-04 16:50 34.35739 -112.20681 20706 ft 358 kts 174°
2026-05-04 16:50 34.30883 -112.19429 19934 ft 355 kts 174°
2026-05-04 16:51 34.26106 -112.18199 19183 ft 351 kts 174°
2026-05-04 16:51 34.23724 -112.17586 18810 ft 348 kts 173°
2026-05-04 16:51 34.19013 -112.16375 18049 ft 343 kts 173°
2026-05-04 16:52 34.14368 -112.15183 17266 ft 337 kts 172°
2026-05-04 16:52 34.12090 -112.14598 16929 ft 333 kts 172°
2026-05-04 16:53 34.07606 -112.13291 16005 ft 336 kts 164°
2026-05-04 16:53 34.00955 -112.10521 14496 ft 340 kts 164°
2026-05-04 16:54 33.98703 -112.09612 13971 ft 342 kts 164°
2026-05-04 16:55 33.89782 -112.06039 11806 ft 320 kts 163°
2026-05-04 16:55 33.85703 -112.04390 10946 ft 297 kts 163°
2026-05-04 16:56 33.81939 -112.02863 10296 ft 275 kts 163°
2026-05-04 16:56 33.76668 -112.00728 9304 ft 266 kts 163°
2026-05-04 16:57 33.74920 -112.00020 9065 ft 261 kts 163°
2026-05-04 16:57 33.71497 -111.98638 8983 ft 262 kts 163°
2026-05-04 16:58 33.66346 -111.96557 8863 ft 254 kts 163°
2026-05-04 16:58 33.64677 -111.95883 8688 ft 253 kts 163°
2026-05-04 16:59 33.61351 -111.94538 8142 ft 250 kts 162°
2026-05-04 17:00 33.54843 -111.91908 7131 ft 246 kts 161°
2026-05-04 17:00 33.52712 -111.86786 6455 ft 251 kts 94°
2026-05-04 17:01 33.52746 -111.82622 5845 ft 249 kts 92°
2026-05-04 17:01 33.52450 -111.78537 5109 ft 244 kts 116°
2026-05-04 17:02 33.50118 -111.75904 4426 ft 229 kts 161°
2026-05-04 17:02 33.47070 -111.75858 4071 ft 220 kts 194°
2026-05-04 17:03 33.45735 -111.76782 4005 ft 227 kts 219°
2026-05-04 17:03 33.44797 -111.78316 4006 ft 232 kts 240°
2026-05-04 17:03 33.44099 -111.82144 3890 ft 239 kts 262°
2026-05-04 17:04 33.44056 -111.86079 3302 ft 231 kts 268°
2026-05-04 17:04 33.44067 -111.89571 2737 ft 195 kts 267°
2026-05-04 17:05 33.44072 -111.92668 2276 ft 175 kts 266°
2026-05-04 17:05 33.44064 -111.95464 1885 ft 162 kts 268°
2026-05-04 17:06 33.44074 -111.98006 1425 ft 138 kts 269°
2026-05-04 17:06 33.44072 -111.99110 1187 ft 129 kts 272°
2026-05-04 17:07 33.44084 -112.00600 1125 ft 39 kts 268°
2026-05-04 17:07 33.44035 -112.00728 1121 ft 19 kts 205°
2026-05-04 17:07 33.43973 -112.00607 1124 ft 16 kts 90°
2026-05-04 17:07 33.43974 -112.00458 1126 ft 19 kts 90°
2026-05-04 17:08 33.43973 -112.00290 1126 ft 21 kts 89°
2026-05-04 17:08 33.43974 -111.99897 1124 ft 26 kts 90°
2026-05-04 17:08 33.43972 -111.99674 1128 ft 28 kts 90°
2026-05-04 17:09 33.43952 -111.99557 1124 ft 10 kts 146°
2026-05-04 17:09 33.43904 -111.99492 1127 ft 12 kts 95°
2026-05-04 17:09 33.43895 -111.99397 1127 ft 7 kts 138°
2026-05-04 17:10 33.43840 -111.99408 1118 ft 0 kts 202°